TimeEST,TemperatureF,Dew PointF,Humidity,Sea Level PressureIn,VisibilityMPH,Wind Direction,Wind SpeedMPH,Gust SpeedMPH,PrecipitationIn,Events,Conditions,WindDirDegrees,DateUTC
12:56 AM,53.1,52.0,96,30.12,10.0,Calm,Calm,-,N/A,,Clear,0,2012-12-06 05:56:00
1:12 AM,51.8,48.2,88,30.11,1.5,Calm,Calm,-,N/A,,Clear,0,2012-12-06 06:12:00
1:15 AM,51.8,48.2,88,30.11,0.8,Calm,Calm,-,N/A,,Clear,0,2012-12-06 06:15:00
1:23 AM,53.6,51.8,94,30.12,1.2,NNE,5.8,-,N/A,,Clear,20,2012-12-06 06:23:00
1:25 AM,53.6,51.8,94,30.12,3.0,North,6.9,-,N/A,,Clear,10,2012-12-06 06:25:00
1:56 AM,55.9,52.0,87,30.12,10.0,Calm,Calm,-,N/A,,Clear,0,2012-12-06 06:56:00
2:56 AM,55.0,52.0,89,30.12,10.0,Calm,Calm,-,N/A,,Partly Cloudy,0,2012-12-06 07:56:00
3:56 AM,55.0,53.1,93,30.12,10.0,NNE,4.6,-,N/A,,Mostly Cloudy,30,2012-12-06 08:56:00
4:56 AM,57.0,55.0,93,30.12,10.0,NNE,4.6,-,N/A,,Overcast,30,2012-12-06 09:56:00
5:52 AM,57.2,55.4,94,30.12,10.0,NE,3.5,-,N/A,,Overcast,40,2012-12-06 10:52:00
5:56 AM,57.0,55.0,93,30.13,10.0,NE,6.9,-,N/A,,Overcast,40,2012-12-06 10:56:00
6:56 AM,57.0,55.0,93,30.14,10.0,NE,6.9,-,N/A,,Overcast,50,2012-12-06 11:56:00
7:03 AM,57.2,55.4,94,30.14,10.0,NE,8.1,-,N/A,,Overcast,50,2012-12-06 12:03:00
7:56 AM,57.0,54.0,89,30.16,10.0,ENE,9.2,-,N/A,,Overcast,60,2012-12-06 12:56:00
8:56 AM,57.9,54.0,87,30.18,10.0,NE,10.4,-,N/A,,Overcast,40,2012-12-06 13:56:00
9:56 AM,60.1,53.1,78,30.18,10.0,NE,10.4,-,N/A,,Mostly Cloudy,40,2012-12-06 14:56:00
10:09 AM,60.8,53.6,77,30.18,10.0,ENE,6.9,-,N/A,,Mostly Cloudy,60,2012-12-06 15:09:00
10:56 AM,62.1,53.1,72,30.18,10.0,East,5.8,-,N/A,,Mostly Cloudy,80,2012-12-06 15:56:00
11:56 AM,63.0,52.0,67,30.16,10.0,Variable,6.9,-,N/A,,Mostly Cloudy,0,2012-12-06 16:56:00
12:56 PM,63.0,52.0,67,30.14,10.0,East,6.9,-,N/A,,Mostly Cloudy,100,2012-12-06 17:56:00
1:56 PM,64.9,53.1,65,30.12,10.0,East,8.1,-,N/A,,Mostly Cloudy,90,2012-12-06 18:56:00
2:56 PM,64.9,52.0,63,30.11,-9999.0,ENE,5.8,-,N/A,,Unknown,70,2012-12-06 19:56:00
3:56 PM,64.0,53.1,67,30.12,10.0,East,5.8,-,N/A,,Unknown,80,2012-12-06 20:56:00
4:56 PM,63.0,53.1,70,30.11,10.0,East,4.6,-,N/A,,Scattered Clouds,90,2012-12-06 21:56:00
5:56 PM,61.0,53.1,75,30.12,10.0,East,5.8,-,N/A,,Mostly Cloudy,80,2012-12-06 22:56:00
6:32 PM,60.8,53.6,77,30.13,10.0,East,8.1,-,N/A,,Mostly Cloudy,90,2012-12-06 23:32:00
6:56 PM,60.1,53.1,78,30.14,10.0,ENE,6.9,-,N/A,,Overcast,70,2012-12-06 23:56:00
7:56 PM,57.9,53.1,84,30.14,10.0,ENE,9.2,-,N/A,,Mostly Cloudy,70,2012-12-07 00:56:00
8:56 PM,57.9,51.1,78,30.14,10.0,ENE,8.1,-,N/A,,Overcast,70,2012-12-07 01:56:00
9:07 PM,57.2,51.8,82,30.14,10.0,East,10.4,16.1,N/A,,Overcast,80,2012-12-07 02:07:00
9:48 PM,57.2,51.8,82,30.14,10.0,ENE,6.9,-,N/A,,Overcast,70,2012-12-07 02:48:00
9:56 PM,57.0,51.1,81,30.14,10.0,NE,8.1,-,N/A,,Overcast,50,2012-12-07 02:56:00
10:56 PM,55.9,48.0,75,30.13,10.0,NE,10.4,-,N/A,,Overcast,50,2012-12-07 03:56:00
11:56 PM,55.9,48.0,75,30.11,10.0,ENE,6.9,-,N/A,,Overcast,60,2012-12-07 04:56:00